PBO Station Position Time Series. Reference Frame : NAM14
Format Version,1.1.1
4-character ID,TPOG
Station name,Tropico_Hills_GP
Begin Date, 2015-04-02
End Date, 2023-06-26
Release Date, 2023-06-27
Reference position, 34.8788598297 North Latitude, -118.2285744178 East Longitude, 772.23435 meters elevation,
Date, North (mm), East (mm), Vertical (mm), North Std. Deviation (mm), East Std. Deviation (mm),              Vertical Std. Deviation (mm), Quality,
2015-04-02,0.00, 0.00, 0.00, 1.91, 1.59, 7.32, repro,
2015-04-03,-1.21, 0.24, -7.57, 2.04, 1.64, 7.73, repro,
2015-04-04,-2.12, -0.27, 3.58, 1.95, 1.62, 7.48, repro,
2015-04-05,-1.72, -0.16, 2.48, 1.95, 1.63, 7.57, repro,
2015-04-06,-1.26, 0.04, 0.75, 1.91, 1.59, 7.36, repro,
2015-04-07,-2.68, 0.45, -1.13, 1.92, 1.58, 7.36, repro,
2015-04-08,-0.04, 0.81, 2.57, 2.04, 1.71, 7.96, repro,
2015-04-09,-1.49, 0.26, 0.89, 1.93, 1.59, 7.35, repro,
2015-04-10,-2.08, -0.45, 5.08, 1.99, 1.65, 7.65, repro,
2015-04-11,-2.38, -0.43, 3.29, 2.05, 1.74, 7.96, repro,
2015-04-12,-0.03, 0.56, 4.91, 1.96, 1.59, 7.59, repro,
2015-04-13,0.28, 0.46, -0.33, 1.97, 1.61, 7.56, repro,
2015-04-14,-0.64, 0.67, 3.77, 1.97, 1.59, 7.47, repro,
2015-04-15,-1.12, 0.74, 3.30, 1.98, 1.63, 7.59, repro,
2015-04-16,-1.29, 0.47, 2.74, 2.00, 1.65, 7.67, repro,
2015-04-17,-2.05, 1.56, 2.35, 2.02, 1.61, 7.76, repro,
2015-04-18,-1.54, 0.45, 1.15, 2.03, 1.60, 7.73, repro,
2015-04-19,-1.93, -0.33, 5.05, 2.00, 1.61, 7.58, repro,
2015-04-20,-1.48, 0.45, 7.93, 1.98, 1.59, 7.47, repro,
2015-04-21,-2.87, -0.30, 6.99, 1.98, 1.58, 7.43, repro,
2015-04-22,-2.12, 1.57, 2.86, 2.00, 1.59, 7.52, repro,
2015-04-23,-1.64, 0.63, -5.57, 1.93, 1.54, 7.29, repro,
2015-04-24,-1.57, 1.82, -5.25, 1.95, 1.55, 7.36, repro,
2015-04-25,0.05, -2.00, 12.39, 1.98, 1.58, 7.50, repro,
2015-04-26,-6.81, 2.60, 15.97, 1.99, 1.58, 7.52, repro,
2015-04-27,-0.67, 1.43, 2.10, 1.93, 1.54, 7.26, repro,
2015-04-28,-0.60, 0.47, -6.00, 1.94, 1.57, 7.41, repro,
2015-04-29,-0.91, 0.24, 0.12, 1.94, 1.55, 7.29, repro,
2015-04-30,0.26, -0.33, 3.93, 2.00, 1.66, 7.70, repro,
2015-05-01,0.25, 0.55, 3.45, 2.00, 1.63, 7.66, repro,
2015-05-02,-0.04, 1.10, -0.62, 1.96, 1.56, 7.42, repro,
2015-05-03,-0.94, 0.44, -0.52, 1.96, 1.61, 7.52, repro,
2015-05-04,0.80, 0.81, -3.57, 1.96, 1.61, 7.51, repro,
2015-05-05,0.88, 1.30, -2.53, 1.94, 1.57, 7.42, repro,
2015-05-06,-0.68, 1.42, -0.03, 1.94, 1.58, 7.45, repro,
2015-05-07,-0.47, 1.12, 1.58, 1.95, 1.57, 7.46, repro,
2015-05-08,-1.20, 0.29, -1.13, 1.94, 1.56, 7.38, repro,
2015-05-09,-0.25, 0.18, 2.36, 1.96, 1.61, 7.54, repro,
2015-05-10,1.85, 0.80, -2.41, 1.96, 1.61, 7.54, repro,
2015-05-11,0.15, 1.08, -0.75, 1.95, 1.58, 7.43, repro,
2015-05-12,-1.52, 0.52, -8.41, 2.02, 1.58, 7.69, repro,
2015-05-13,-1.08, -0.60, -4.74, 2.02, 1.59, 7.70, repro,
2015-05-14,0.31, -1.24, -9.72, 1.96, 1.60, 7.53, repro,
2015-05-15,-0.07, 0.18, -9.93, 1.93, 1.56, 7.36, repro,
2015-05-16,-2.73, -0.64, -0.20, 1.92, 1.58, 7.38, repro,
2015-05-17,0.30, 0.55, 1.34, 1.93, 1.58, 7.43, repro,
2015-05-18,-1.87, -0.33, -0.09, 1.94, 1.58, 7.47, repro,
2015-05-19,-0.16, 0.18, -7.54, 2.01, 1.60, 7.62, repro,
2015-05-20,-1.34, -0.01, -3.85, 1.94, 1.59, 7.39, repro,
2015-05-21,0.24, 0.42, -2.45, 1.96, 1.60, 7.52, repro,
2015-05-22,-1.59, 0.65, -3.13, 1.92, 1.57, 7.31, repro,
2015-05-23,-1.37, 0.28, -3.10, 1.95, 1.62, 7.49, repro,
2015-05-24,-1.08, -0.42, -0.85, 1.91, 1.57, 7.27, repro,
2015-05-25,-0.73, 0.28, -2.01, 1.93, 1.57, 7.31, repro,
2015-05-26,0.71, -0.37, -3.87, 1.92, 1.56, 7.32, repro,
2015-05-27,-0.15, 0.37, -3.66, 1.92, 1.58, 7.34, repro,
2015-05-28,-0.37, 0.13, -0.98, 2.00, 1.61, 7.64, repro,
2015-05-29,-2.38, 0.37, -0.03, 1.94, 1.59, 7.40, repro,
2015-05-30,-0.63, -0.49, -4.94, 1.91, 1.58, 7.30, repro,
2015-05-31,-0.73, 0.47, -1.30, 1.95, 1.61, 7.44, repro,
2015-06-01,-0.80, -1.26, -7.65, 1.92, 1.58, 7.37, repro,
2015-06-02,-0.55, -1.14, -2.29, 1.93, 1.57, 7.38, repro,
2015-06-03,-0.90, -1.27, 0.20, 1.92, 1.58, 7.34, repro,
2015-06-04,-0.87, 1.19, -0.95, 1.91, 1.59, 7.30, repro,
2015-06-05,0.05, -0.03, -12.03, 1.98, 1.70, 7.59, repro,
2015-06-06,-0.47, -0.57, -5.36, 1.92, 1.58, 7.34, repro,
2015-06-07,-0.10, 0.04, 0.97, 1.92, 1.58, 7.33, repro,
2015-06-08,-2.43, -1.31, -5.85, 1.92, 1.58, 7.32, repro,
2015-06-09,-2.07, -0.75, -3.59, 1.92, 1.58, 7.29, repro,
2015-06-10,-2.09, 0.49, -0.15, 1.91, 1.58, 7.27, repro,
2015-06-11,0.18, 0.19, -4.86, 2.05, 1.63, 7.57, repro,
2015-06-12,-1.80, -0.38, -2.30, 1.93, 1.58, 7.31, repro,
2015-06-13,-1.92, -1.24, 2.83, 2.07, 1.64, 7.75, repro,
2015-06-14,-0.87, 1.12, -6.29, 1.94, 1.59, 7.38, repro,
2015-06-15,-0.61, -0.12, -5.29, 1.96, 1.65, 7.48, repro,
2015-06-16,-1.08, -0.28, 0.02, 1.92, 1.61, 7.35, repro,
2015-06-17,-0.86, -0.49, -1.72, 1.95, 1.63, 7.38, repro,
2015-06-18,0.41, -0.13, -1.46, 1.97, 1.67, 7.60, repro,
2015-06-19,-0.13, 0.67, 3.83, 2.00, 1.67, 7.59, repro,
2015-06-20,-0.84, 0.15, 7.31, 1.91, 1.58, 7.21, repro,
2015-06-21,1.54, 0.24, -1.07, 1.90, 1.56, 7.18, repro,
2015-06-22,-0.43, -0.23, 5.22, 1.91, 1.59, 7.32, repro,
2015-06-23,0.49, -0.74, -0.70, 2.03, 1.63, 7.53, repro,
2015-06-24,-1.21, 0.26, 3.63, 1.98, 1.63, 7.50, repro,
2015-06-25,-1.34, -1.47, 6.50, 1.94, 1.63, 7.38, repro,
2015-06-26,-0.86, -1.53, -0.49, 1.95, 1.57, 7.28, repro,
2015-06-27,0.20, -0.82, -4.59, 1.92, 1.59, 7.24, repro,
2015-06-28,0.82, 0.08, -2.33, 1.90, 1.55, 7.11, repro,
2015-06-29,-0.98, -1.19, 12.15, 2.01, 1.71, 7.56, repro,
2015-06-30,0.30, -0.17, 2.41, 2.00, 1.64, 7.60, repro,
2015-07-01,-1.74, 0.75, 6.08, 1.98, 1.60, 7.55, repro,
2015-07-02,-0.08, -0.97, -1.35, 1.96, 1.59, 7.43, repro,
2015-07-03,-1.24, -0.56, 4.19, 1.92, 1.57, 7.21, repro,
2015-07-04,-1.63, 0.69, 5.04, 1.91, 1.57, 7.19, repro,
2015-07-05,-1.30, -0.29, -1.51, 1.94, 1.60, 7.33, repro,
2015-07-06,-0.89, -0.63, 3.75, 1.91, 1.58, 7.25, repro,
2015-07-07,-1.39, -0.55, 3.99, 1.91, 1.57, 7.18, repro,
2015-07-08,0.23, -0.15, 0.36, 1.91, 1.57, 7.21, repro,
2015-07-09,-0.56, 0.18, 6.78, 1.91, 1.55, 7.11, repro,
2015-07-10,0.27, 0.05, 7.71, 1.92, 1.58, 7.19, repro,
2015-07-11,0.27, -1.17, 2.93, 1.98, 1.62, 7.40, repro,
2015-07-12,-1.05, -0.21, 1.67, 1.93, 1.57, 7.22, repro,
2015-07-13,-0.04, -0.57, 0.93, 1.93, 1.60, 7.24, repro,
2015-07-14,0.12, 2.32, 4.11, 1.91, 1.57, 7.18, repro,
2015-07-15,-1.21, 0.02, 0.80, 1.93, 1.57, 7.21, repro,
2015-07-16,-2.00, -0.43, 4.94, 1.94, 1.60, 7.27, repro,
2015-07-17,-0.33, 0.07, 5.15, 1.91, 1.56, 7.13, repro,
2015-07-18,0.83, -0.20, 2.19, 1.94, 1.59, 7.33, repro,
2015-07-19,-2.25, -0.17, 6.61, 1.92, 1.57, 7.23, repro,
2015-07-20,1.44, 0.43, 2.21, 1.90, 1.56, 7.12, repro,
2015-07-21,-2.07, -0.70, 9.65, 1.96, 1.62, 7.32, repro,
2015-07-22,-3.56, 0.74, 14.67, 1.92, 1.56, 7.18, repro,
2015-07-23,-0.63, 0.18, 6.12, 1.91, 1.56, 7.15, repro,
2015-07-24,-2.60, -0.07, 4.94, 1.90, 1.57, 7.14, repro,
2015-07-25,-1.83, -1.80, 3.35, 1.89, 1.57, 7.13, repro,
2015-07-26,-1.99, 0.05, 6.04, 1.96, 1.57, 7.32, repro,
2015-07-27,-0.35, -0.37, 4.73, 1.92, 1.57, 7.19, repro,
2015-07-28,-2.11, -0.32, 7.11, 1.97, 1.58, 7.40, repro,
2015-07-29,-2.43, -0.12, 3.66, 2.00, 1.60, 7.55, repro,
2015-07-30,-1.74, 0.99, -0.75, 1.91, 1.57, 7.15, repro,
2015-07-31,-1.28, 0.54, -3.18, 1.94, 1.59, 7.23, repro,
2015-08-01,0.01, 0.51, 2.03, 1.96, 1.62, 7.42, repro,
2015-08-02,-1.37, -0.86, 5.17, 1.92, 1.56, 7.19, repro,
2015-08-03,-1.92, 0.16, 7.87, 1.92, 1.58, 7.26, repro,
2015-08-04,-1.51, -1.22, 9.04, 1.98, 1.70, 7.62, repro,
2015-08-05,-2.72, 0.25, 6.70, 1.92, 1.62, 7.36, repro,
2015-08-06,-1.24, -0.94, 10.34, 1.96, 1.65, 7.53, repro,
2015-08-07,-3.46, -0.73, 5.64, 1.94, 1.60, 7.37, repro,
2015-08-08,-0.79, 0.48, 16.66, 1.96, 1.62, 7.35, repro,
2015-08-09,-0.91, 0.33, 5.87, 2.05, 1.72, 7.74, repro,
2015-08-10,-1.78, 0.19, 7.14, 1.95, 1.65, 7.44, repro,
2015-08-11,-0.80, 0.50, 10.53, 1.97, 1.63, 7.42, repro,
2015-08-12,-0.04, 0.05, 0.78, 1.93, 1.61, 7.27, repro,
2015-08-13,-0.08, -1.33, 3.55, 1.95, 1.62, 7.40, repro,
2015-08-14,0.78, -0.45, 12.07, 1.93, 1.59, 7.26, repro,
2015-08-15,0.63, -0.90, 6.31, 1.91, 1.59, 7.22, repro,
2015-08-16,-1.86, -0.72, 16.16, 1.91, 1.58, 7.25, repro,
2015-08-17,-0.55, -0.34, 11.69, 1.91, 1.58, 7.25, repro,
2015-08-18,-1.02, -1.64, 11.10, 1.89, 1.57, 7.17, repro,
2015-08-19,-0.35, -1.28, 9.32, 1.95, 1.62, 7.38, repro,
2015-08-20,-0.49, 0.21, 11.51, 1.94, 1.62, 7.41, repro,
2015-08-21,-1.25, 0.17, 6.26, 1.92, 1.59, 7.27, repro,
2015-08-22,-0.84, -2.14, -1.57, 1.92, 1.58, 7.31, repro,
2015-08-23,0.20, -0.49, 8.40, 1.97, 1.63, 7.40, repro,
2015-08-24,-1.80, -0.90, 5.14, 1.92, 1.58, 7.26, repro,
2015-08-25,-0.54, -1.05, 4.58, 1.95, 1.64, 7.47, repro,
2015-08-26,-1.75, 0.61, 0.76, 1.91, 1.59, 7.26, repro,
2015-08-27,-1.24, -0.69, 9.44, 1.91, 1.58, 7.23, repro,
2015-08-28,-0.59, -0.78, 6.93, 1.94, 1.59, 7.28, repro,
2015-08-29,0.16, -0.56, 6.50, 1.91, 1.58, 7.25, repro,
2015-08-30,-0.60, -1.57, 11.10, 1.93, 1.61, 7.34, repro,
2015-08-31,-1.38, 0.08, 9.88, 1.95, 1.64, 7.43, repro,
2015-09-01,-1.22, -0.69, 9.56, 1.96, 1.62, 7.40, repro,
2015-09-02,-1.51, 0.28, 17.96, 1.99, 1.61, 7.46, repro,
2015-09-03,-3.43, -0.87, 5.14, 1.91, 1.59, 7.28, repro,
2015-09-04,-0.63, -0.01, 7.00, 1.98, 1.65, 7.49, repro,
2015-09-05,-2.24, -0.40, -0.27, 1.91, 1.58, 7.24, repro,
2015-09-06,-0.82, 0.72, 2.28, 1.95, 1.66, 7.54, repro,
2015-09-07,-1.35, -0.47, 7.40, 1.91, 1.59, 7.27, repro,
2015-09-08,-1.87, -0.65, 1.96, 1.91, 1.60, 7.31, repro,
2015-09-09,-0.74, -0.78, 11.82, 1.96, 1.64, 7.59, repro,
2015-09-10,-1.60, -1.26, 8.49, 1.92, 1.59, 7.34, repro,
2015-09-11,-1.55, -0.04, 3.96, 2.04, 1.71, 7.75, repro,
2015-09-12,-0.77, -0.28, 1.64, 1.95, 1.64, 7.48, repro,
2015-09-13,-1.37, 0.23, 11.90, 1.94, 1.62, 7.45, repro,
2015-09-14,-0.81, -0.42, 7.19, 1.92, 1.59, 7.33, repro,
2015-09-15,-2.25, -1.34, 13.07, 1.92, 1.61, 7.39, repro,
2015-09-16,-0.36, -0.38, 5.12, 1.92, 1.61, 7.35, repro,
2015-09-17,-0.41, 0.89, 4.21, 1.93, 1.61, 7.37, repro,
2015-09-18,-0.60, -0.83, 6.93, 1.89, 1.58, 7.18, repro,
2015-09-19,-1.08, -0.30, 6.91, 1.92, 1.63, 7.40, repro,
2015-09-20,-0.87, -1.02, 8.46, 1.99, 1.67, 7.59, repro,
2015-09-21,-2.00, -0.83, 9.90, 1.97, 1.64, 7.56, repro,
2015-09-22,-1.97, 0.26, 1.03, 2.08, 1.89, 8.49, repro,
2015-09-23,-1.59, 0.63, -0.27, 1.93, 1.63, 7.44, repro,
2015-09-24,-0.51, -0.26, 2.35, 1.93, 1.62, 7.43, repro,
2015-09-25,0.43, 0.02, -0.30, 1.96, 1.67, 7.67, repro,
2015-09-26,-0.47, -1.29, 3.71, 1.94, 1.63, 7.54, repro,
2015-09-27,-1.17, -1.05, 11.29, 1.93, 1.62, 7.47, repro,
2015-09-28,-0.22, -0.56, 5.52, 2.03, 1.67, 7.80, repro,
2015-09-29,-1.76, 0.17, 4.69, 2.03, 1.71, 7.87, repro,
2015-09-30,-0.44, -1.52, 8.76, 2.07, 1.81, 8.25, repro,
2015-10-01,-0.04, 0.12, 3.71, 2.06, 1.79, 8.17, repro,
2015-10-02,-2.80, -0.19, -3.04, 1.99, 1.71, 7.76, repro,
2015-10-03,-0.18, -0.77, 2.14, 2.00, 1.75, 7.90, repro,
2015-10-04,-1.09, 2.11, 9.16, 1.94, 1.66, 7.48, repro,
2015-10-05,-1.52, -0.07, 9.68, 1.94, 1.66, 7.50, repro,
2015-10-06,-0.79, 0.86, 9.31, 1.94, 1.68, 7.57, repro,
2015-10-07,-1.98, -1.28, 2.03, 1.96, 1.68, 7.57, repro,
2015-10-08,-0.01, -1.64, 1.95, 2.04, 1.81, 8.01, repro,
2015-10-09,0.59, -0.46, 7.25, 2.13, 1.96, 8.57, repro,
2015-10-10,-1.08, 1.15, 13.01, 2.03, 1.77, 7.93, repro,
2015-10-11,-1.27, 0.50, 8.83, 2.05, 1.85, 8.32, repro,
2015-10-12,-1.01, 0.93, 9.71, 2.07, 1.86, 8.49, repro,
2015-10-13,-1.13, 0.22, 8.38, 2.10, 1.94, 8.40, repro,
2015-10-14,0.27, -0.32, -0.52, 2.08, 1.86, 8.36, repro,
2015-10-15,1.09, 0.60, 8.06, 2.09, 1.88, 8.39, repro,
2015-10-16,-0.73, 0.35, 4.80, 2.57, 2.35, 10.30, repro,
2015-10-17,-2.00, 1.42, 11.58, 2.05, 1.84, 8.11, repro,
2015-10-18,-0.22, -1.01, 0.96, 2.04, 1.81, 8.00, repro,
2015-10-19,0.35, -1.14, 3.61, 2.00, 1.77, 7.89, repro,
2015-10-20,-1.24, 0.98, 5.58, 2.03, 1.85, 8.06, repro,
2015-10-21,-1.56, 0.86, 5.53, 2.03, 1.80, 8.00, repro,
2015-10-22,-2.14, 0.55, 11.09, 2.04, 1.84, 8.16, repro,
2015-10-23,-1.07, 0.42, 3.56, 2.09, 1.90, 8.34, repro,
2015-10-24,-0.24, -2.07, 6.87, 2.13, 1.99, 8.58, repro,
2015-10-25,-0.60, -0.50, 2.60, 2.06, 1.88, 8.25, repro,
2015-10-26,-1.01, -0.10, 7.78, 2.19, 2.04, 8.85, repro,
2015-10-27,-0.55, 0.92, 13.72, 2.10, 1.91, 8.32, repro,
2015-10-28,0.20, 0.52, 13.75, 2.08, 1.88, 8.27, repro,
2015-10-29,-0.32, -0.02, 16.47, 2.17, 2.00, 8.84, repro,
2015-10-30,-1.05, 0.74, 19.12, 2.10, 1.98, 8.64, repro,
2015-10-31,-0.41, 1.35, 11.56, 2.07, 1.89, 8.18, repro,
2015-11-01,-0.95, 2.49, 14.49, 2.21, 2.05, 8.92, repro,
2015-11-02,-0.73, 0.75, 5.09, 2.18, 2.00, 8.53, repro,
2015-11-03,-1.82, 0.05, 6.22, 2.23, 2.07, 9.04, repro,
2015-11-04,1.00, 0.88, 13.62, 2.33, 2.20, 9.29, repro,
2015-11-05,0.49, -0.59, 6.47, 2.23, 2.04, 9.04, repro,
2015-11-06,-1.27, 0.95, 5.78, 3.08, 2.79, 13.15, repro,
2015-11-07,0.86, 0.48, 13.11, 3.02, 3.27, 14.99, repro,
2015-11-08,-0.63, 0.69, 10.84, 3.10, 2.92, 12.54, repro,
2015-11-09,-3.54, 0.87, 17.17, 2.93, 2.74, 12.04, repro,
2015-11-10,0.62, 0.72, 12.90, 3.23, 3.74, 15.77, repro,
2015-11-11,-0.41, 0.42, 3.89, 3.17, 2.93, 14.11, repro,
2015-11-12,0.14, 0.42, 10.93, 3.04, 2.91, 13.03, repro,
2015-11-13,0.06, 0.38, 9.05, 2.96, 2.96, 12.98, repro,
2015-11-14,-0.03, 0.67, 5.60, 3.24, 3.70, 15.15, repro,
2015-11-15,-2.96, -2.41, -3.03, 3.09, 3.09, 13.49, repro,
2015-11-16,-3.71, -0.41, 22.58, 3.09, 3.47, 15.30, repro,
2015-11-17,-0.13, 0.13, 6.91, 3.17, 3.31, 14.15, repro,
2015-11-18,1.39, -0.53, 1.47, 2.95, 2.93, 13.08, repro,
2015-11-19,-0.38, -0.02, 10.62, 1.91, 1.64, 7.43, repro,
2015-11-20,0.64, 0.60, 4.75, 1.94, 1.68, 7.52, repro,
2015-11-21,0.14, -0.06, -0.40, 1.90, 1.62, 7.42, repro,
2015-11-22,0.05, 0.58, 4.65, 2.07, 1.85, 8.22, repro,
2015-11-23,0.58, 0.37, 7.78, 1.92, 1.63, 7.40, repro,
2015-11-24,0.80, 0.52, 10.67, 1.89, 1.62, 7.34, repro,
2015-11-25,0.29, 0.05, 9.81, 1.91, 1.62, 7.41, repro,
2015-11-26,0.56, 0.09, 5.06, 1.94, 1.69, 7.57, repro,
2015-11-27,-0.04, 0.31, -1.32, 1.91, 1.66, 7.47, repro,
2015-11-28,0.50, 0.31, 2.65, 1.97, 1.74, 7.66, repro,
2015-11-29,1.34, 1.47, 3.70, 1.91, 1.63, 7.34, repro,
2015-11-30,0.97, 0.52, -0.83, 1.90, 1.61, 7.32, repro,
2015-12-01,1.13, 0.95, -1.96, 1.95, 1.70, 7.61, repro,
2015-12-02,0.06, 1.07, 2.22, 1.93, 1.69, 7.63, repro,
2015-12-03,-0.93, 0.88, 3.05, 1.91, 1.63, 7.38, repro,
2015-12-04,-0.52, 0.51, 5.37, 1.94, 1.67, 7.50, repro,
2015-12-05,0.30, 0.72, -2.09, 1.89, 1.60, 7.38, repro,
2015-12-06,0.35, 0.64, -4.16, 2.00, 1.75, 7.84, repro,
2015-12-07,-0.25, 1.21, 4.03, 2.00, 1.81, 7.98, repro,
2015-12-08,-0.89, 1.24, 1.40, 1.94, 1.71, 7.73, repro,
2015-12-09,0.00, -0.57, 6.23, 1.94, 1.72, 7.66, repro,
2015-12-10,-1.25, 0.26, 5.97, 1.94, 1.70, 7.65, repro,
2015-12-11,-1.58, -2.62, 4.61, 1.92, 1.68, 7.55, repro,
2015-12-12,0.30, -3.73, -0.39, 1.99, 1.71, 7.83, repro,
2015-12-13,0.49, -3.05, -1.61, 1.94, 1.70, 7.71, repro,
2015-12-14,-0.63, -3.02, 16.29, 1.91, 1.63, 7.44, repro,
2015-12-15,-0.18, 1.48, 7.54, 1.89, 1.59, 7.30, repro,
2015-12-16,-0.71, 1.06, 5.43, 1.88, 1.58, 7.24, repro,
2015-12-17,-0.27, 1.23, -4.50, 1.94, 1.60, 7.48, repro,
2015-12-18,1.55, 0.97, 0.04, 2.02, 1.72, 7.85, repro,
2015-12-19,0.26, 0.66, 3.46, 1.87, 1.58, 7.23, repro,
2015-12-20,0.71, -0.10, 1.10, 1.91, 1.59, 7.30, repro,
2015-12-21,0.08, 0.35, 5.43, 1.93, 1.65, 7.43, repro,
2015-12-22,3.76, 6.14, -16.25, 2.02, 1.75, 8.13, repro,
2015-12-23,-1.79, -1.08, 7.80, 1.93, 1.61, 7.45, repro,
2015-12-24,-0.29, 1.20, 12.99, 1.95, 1.69, 7.55, repro,
2015-12-25,-1.15, -1.98, 1.81, 1.90, 1.61, 7.35, repro,
2015-12-26,-2.00, 0.02, -3.16, 1.88, 1.58, 7.19, repro,
2015-12-27,0.26, 0.34, -0.47, 1.92, 1.62, 7.32, repro,
2015-12-28,-0.55, 0.17, -4.85, 2.01, 1.73, 7.92, repro,
2015-12-29,0.01, 1.47, -2.29, 1.96, 1.73, 7.67, repro,
2015-12-30,-0.20, 0.95, -3.17, 1.90, 1.63, 7.39, repro,
2015-12-31,0.56, 0.37, -0.82, 1.89, 1.61, 7.30, repro,
2016-01-01,0.36, -0.70, -1.74, 1.97, 1.64, 7.56, repro,
2016-01-02,0.36, 1.08, -1.42, 1.91, 1.62, 7.30, repro,
2016-01-03,-0.93, 1.57, 0.04, 1.98, 1.72, 7.78, repro,
2016-01-04,-0.41, 2.06, 1.89, 1.90, 1.63, 7.33, repro,
2016-01-05,0.02, 0.39, 3.82, 1.88, 1.59, 7.26, repro,
2016-01-06,-1.85, -0.63, -7.14, 1.89, 1.59, 7.28, repro,
2016-01-07,-0.32, 1.62, 0.46, 1.94, 1.65, 7.40, repro,
2016-01-08,-0.89, 0.81, -2.49, 1.96, 1.68, 7.57, repro,
2016-01-09,-1.71, 2.39, -2.25, 1.94, 1.69, 7.63, repro,
2016-01-10,-0.93, 3.09, -4.88, 1.92, 1.63, 7.32, repro,
2016-01-11,-1.97, 0.38, -8.57, 1.97, 1.63, 7.58, repro,
2016-01-12,-0.48, 0.13, -10.07, 1.88, 1.57, 7.14, repro,
2016-01-13,0.42, 0.26, -3.20, 1.92, 1.65, 7.47, repro,
2016-01-14,-0.96, 0.36, -0.32, 1.97, 1.71, 7.74, repro,
2016-01-15,1.22, 4.65, 3.19, 1.99, 1.71, 7.65, repro,
2016-01-16,-0.36, 0.16, 1.73, 1.94, 1.61, 7.36, repro,
2016-01-17,-0.11, -0.39, -8.11, 1.89, 1.59, 7.26, repro,
2016-01-18,-0.14, 2.04, -3.85, 1.90, 1.58, 7.25, repro,
2016-01-19,0.51, -0.04, -7.73, 1.88, 1.58, 7.18, repro,
2016-01-20,-3.41, 0.87, -8.66, 1.89, 1.59, 7.19, repro,
2016-01-21,-1.41, 0.73, -6.31, 1.92, 1.64, 7.38, repro,
2016-01-22,-1.37, 0.24, -5.19, 1.89, 1.57, 7.19, repro,
2016-01-23,-1.34, -0.76, -5.86, 1.90, 1.57, 7.19, repro,
2016-01-24,2.31, -5.48, -12.21, 1.93, 1.63, 7.35, repro,
2016-01-25,0.66, -1.48, -7.84, 1.99, 1.63, 7.67, repro,
2016-01-26,-0.85, 0.15, -1.90, 1.96, 1.69, 7.72, repro,
2016-01-27,-1.22, -0.20, -6.32, 1.94, 1.61, 7.44, repro,
2016-01-28,-0.87, -0.37, -4.86, 1.91, 1.60, 7.33, repro,
2016-01-29,1.71, -1.80, -13.10, 1.98, 1.62, 7.55, repro,
2016-01-30,-1.98, -0.32, 2.26, 1.94, 1.62, 7.49, repro,
2016-01-31,-1.34, -1.97, -1.81, 2.01, 1.67, 7.74, repro,
2016-02-01,-2.75, 0.01, 8.17, 1.94, 1.62, 7.46, repro,
2016-02-02,-1.39, -1.15, -4.29, 1.95, 1.66, 7.48, repro,
2016-02-03,-1.48, 0.70, -8.55, 1.94, 1.65, 7.54, repro,
2016-02-04,-0.81, 0.30, -7.02, 1.92, 1.63, 7.46, repro,
2016-02-05,0.45, -0.20, -14.59, 1.95, 1.68, 7.64, repro,
2016-02-06,-1.45, -0.28, -10.01, 1.95, 1.64, 7.49, repro,
2016-02-07,-0.30, -0.50, -8.49, 1.96, 1.70, 7.61, repro,
2016-02-08,1.05, 1.44, -13.57, 1.92, 1.61, 7.37, repro,
2016-02-09,0.21, 0.87, -5.62, 2.06, 1.72, 7.83, repro,
2016-02-10,-0.51, -0.36, -6.82, 1.93, 1.65, 7.52, repro,
2016-02-11,0.06, -0.49, -8.14, 1.91, 1.59, 7.33, repro,
2016-02-12,-0.43, -0.39, -4.65, 2.00, 1.74, 7.71, repro,
2016-02-13,-0.46, 0.10, -7.42, 1.91, 1.59, 7.27, repro,
2016-02-14,-0.60, -0.10, -6.42, 1.92, 1.59, 7.37, repro,
2016-02-15,-0.50, 0.70, -1.01, 1.97, 1.69, 7.65, repro,
2016-02-16,-1.00, -1.31, -3.77, 1.95, 1.65, 7.51, repro,
2016-02-17,-1.97, 0.18, -0.06, 1.92, 1.59, 7.33, repro,
2016-02-18,-2.98, -0.42, 5.83, 1.97, 1.67, 7.67, repro,
2016-02-19,-0.97, -0.15, 1.13, 1.92, 1.60, 7.32, repro,
2016-02-20,0.85, 0.88, 0.36, 1.95, 1.67, 7.57, repro,
2016-02-21,-0.21, -0.47, -6.33, 1.97, 1.70, 7.67, repro,
2016-02-22,0.80, -0.82, -5.23, 1.96, 1.70, 7.61, repro,
2016-02-23,-0.67, -0.76, -5.41, 1.93, 1.60, 7.33, repro,
2016-02-24,-0.60, 0.20, -6.82, 1.95, 1.69, 7.52, repro,
2016-02-25,-0.96, 1.39, -4.18, 1.97, 1.70, 7.65, repro,
2016-02-26,-0.25, 1.17, -3.30, 1.95, 1.64, 7.56, repro,
2016-02-27,-0.33, -0.34, -0.45, 1.92, 1.62, 7.39, repro,
2016-02-28,1.41, -1.40, -2.26, 1.95, 1.67, 7.50, repro,
2016-02-29,0.55, 0.55, -5.56, 2.00, 1.76, 7.79, repro,
2016-03-01,0.11, 0.58, 0.89, 1.97, 1.70, 7.66, repro,
2016-03-02,-0.42, 1.33, -1.58, 1.97, 1.68, 7.59, repro,
2016-03-03,-1.19, -0.55, -4.78, 1.95, 1.66, 7.52, repro,
2016-03-04,-2.19, 1.03, -2.58, 1.93, 1.67, 7.45, repro,
2016-03-05,0.35, 0.70, -3.10, 1.91, 1.61, 7.26, repro,
2016-03-06,-3.28, -0.51, 4.06, 1.93, 1.64, 7.45, repro,
2016-03-07,-1.37, -1.18, -1.21, 2.00, 1.76, 7.82, repro,
2016-03-08,-1.42, 1.32, 1.54, 2.04, 1.75, 7.77, repro,
2016-03-09,-0.96, 1.79, -3.58, 1.93, 1.62, 7.36, repro,
2016-03-10,0.83, -1.13, -3.84, 1.87, 1.61, 7.13, repro,
2016-03-11,-2.74, 2.24, -9.26, 1.88, 1.59, 7.09, repro,
2016-03-12,-2.46, 0.58, 1.76, 1.91, 1.60, 7.22, repro,
2016-03-13,1.05, 1.21, -5.07, 1.91, 1.64, 7.29, repro,
2016-03-14,-1.04, -0.74, 7.80, 1.94, 1.68, 7.36, repro,
2016-03-15,-2.31, 0.95, -2.83, 1.90, 1.65, 7.17, repro,
2016-03-16,-2.08, 0.04, -3.67, 1.97, 1.79, 7.60, repro,
2016-03-17,-0.43, 0.22, -2.39, 2.03, 1.81, 7.80, repro,
2016-03-18,-0.32, 0.08, -8.91, 2.01, 1.66, 7.46, repro,
2016-03-19,-1.40, -0.38, -1.55, 1.93, 1.63, 7.24, repro,
2016-03-20,-1.09, 1.24, -4.75, 1.89, 1.59, 7.13, repro,
2016-03-21,-0.65, 1.20, -6.65, 1.88, 1.59, 7.08, repro,
2016-03-22,-1.02, -2.05, -4.39, 1.92, 1.66, 7.29, repro,
2016-03-23,-0.54, -0.26, -3.37, 1.99, 1.70, 7.59, repro,
2016-03-24,0.02, -0.67, -8.19, 1.96, 1.71, 7.63, repro,
2016-03-25,0.17, -2.15, 4.56, 1.89, 1.60, 7.10, repro,
2016-03-26,-2.15, 0.92, 3.11, 1.90, 1.62, 7.17, repro,
2016-03-27,-2.26, 0.20, -0.77, 1.87, 1.58, 7.05, repro,
2016-03-28,-2.35, -1.22, -0.38, 1.87, 1.59, 7.10, repro,
2016-03-29,-2.02, 1.95, 6.02, 1.97, 1.67, 7.48, repro,
2016-03-30,-2.41, 0.70, -0.19, 1.89, 1.62, 7.18, repro,
2016-03-31,-2.80, 2.19, 7.01, 1.89, 1.60, 7.13, repro,
2016-04-01,-1.72, 0.72, 3.98, 1.88, 1.59, 7.12, repro,
2016-04-02,-1.05, 1.84, -2.40, 1.86, 1.58, 7.00, repro,
2016-04-03,-0.57, 0.06, -6.41, 2.01, 1.88, 7.85, repro,
2016-04-04,0.37, 1.92, -1.24, 1.94, 1.71, 7.41, repro,
2016-04-05,-1.57, 0.60, -5.24, 1.89, 1.64, 7.19, repro,
2016-04-06,-0.52, 0.66, -3.42, 1.88, 1.60, 7.10, repro,
2016-04-07,-1.47, -0.03, -2.91, 1.88, 1.63, 7.16, repro,
2016-04-08,-1.81, 0.55, -3.31, 1.86, 1.60, 7.08, repro,
2016-04-09,-0.87, 0.78, -0.75, 1.97, 1.76, 7.59, repro,
2016-04-10,-1.52, 0.50, 5.19, 1.91, 1.66, 7.30, repro,
2016-04-11,-1.91, 1.35, -0.21, 1.89, 1.62, 7.18, repro,
2016-04-12,-1.10, -0.28, -6.01, 1.88, 1.61, 7.16, repro,
2016-04-13,0.35, 0.75, -15.87, 1.89, 1.60, 7.17, repro,
2016-04-14,-0.02, 0.70, 10.26, 1.91, 1.66, 7.31, repro,
2016-04-15,-0.93, -1.02, -0.21, 1.89, 1.63, 7.20, repro,
2016-04-16,-2.06, 0.02, -8.33, 1.89, 1.64, 7.23, repro,
2016-04-17,-0.78, 0.20, -0.27, 1.89, 1.63, 7.21, repro,
2016-04-18,0.46, 0.47, -4.15, 1.91, 1.66, 7.29, repro,
2016-04-19,-0.50, -0.28, -1.36, 1.93, 1.64, 7.37, repro,
2016-04-20,-0.32, -1.27, -2.30, 2.01, 1.77, 7.87, repro,
2016-04-21,-1.39, 0.11, -6.80, 1.95, 1.73, 7.50, repro,
2016-04-22,0.58, -1.34, -2.17, 1.90, 1.64, 7.28, repro,
2016-04-23,-1.02, 0.18, 1.72, 1.89, 1.64, 7.25, repro,
2016-04-24,-0.76, 1.56, 2.50, 1.88, 1.62, 7.18, repro,
2016-04-25,0.19, -0.15, -0.58, 1.94, 1.70, 7.45, repro,
2016-04-26,0.04, -0.57, -4.19, 1.93, 1.70, 7.42, repro,
2016-04-27,-1.95, 0.24, -10.11, 1.91, 1.67, 7.41, repro,
2016-04-28,-1.06, 0.75, -0.26, 1.90, 1.69, 7.38, repro,
2016-04-29,-2.33, -0.82, -5.73, 1.88, 1.63, 7.19, repro,
2016-04-30,-4.47, 1.04, -7.79, 1.91, 1.63, 7.26, repro,
2016-05-01,0.55, -1.67, -6.73, 1.96, 1.77, 7.61, repro,
2016-05-02,-0.92, -0.33, -3.45, 1.92, 1.64, 7.32, repro,
2016-05-03,-0.65, 0.52, -2.95, 1.91, 1.64, 7.34, repro,
2016-05-04,-2.39, -2.20, -3.18, 1.92, 1.64, 7.38, repro,
2016-05-05,-3.00, -0.31, -3.58, 1.98, 1.64, 7.50, repro,
2016-05-06,-0.42, -1.24, 1.39, 2.09, 1.86, 8.11, repro,
2016-05-07,0.25, -0.57, -1.48, 1.96, 1.73, 7.50, repro,
2016-05-08,-1.05, -0.08, 0.30, 1.96, 1.71, 7.44, repro,
2016-05-09,-1.78, 0.80, 1.15, 1.89, 1.63, 7.25, repro,
2016-05-10,-1.56, -0.46, -0.62, 1.88, 1.63, 7.19, repro,
2016-05-11,-0.61, 0.39, -5.35, 1.94, 1.67, 7.36, repro,
2016-05-12,-0.90, -0.14, -0.93, 1.92, 1.68, 7.33, repro,
2016-05-13,-2.18, 0.83, -6.36, 1.88, 1.62, 7.22, repro,
2016-05-14,-1.78, 0.16, 0.62, 2.35, 1.86, 8.79, repro,
2016-05-15,-1.85, 0.49, 6.65, 1.88, 1.62, 7.21, repro,
2016-05-16,-2.16, -0.94, -1.14, 1.90, 1.63, 7.24, repro,
2016-05-17,-0.80, 0.72, -3.29, 1.89, 1.62, 7.20, repro,
2016-05-18,-0.63, 1.61, -8.76, 1.88, 1.63, 7.20, repro,
2016-05-19,0.65, 0.79, -3.46, 1.97, 1.73, 7.61, repro,
2016-05-20,1.39, -0.98, 3.87, 1.93, 1.68, 7.47, repro,
2016-05-21,-2.52, 0.59, -3.37, 1.87, 1.60, 7.10, repro,
2016-05-22,-1.01, -1.42, -3.87, 1.90, 1.67, 7.31, repro,
2016-05-23,-0.80, 1.13, -4.58, 1.88, 1.61, 7.14, repro,
2016-05-24,-0.58, 0.84, -9.47, 1.87, 1.60, 7.11, repro,
2016-05-25,-1.35, 0.38, 0.71, 1.95, 1.73, 7.46, repro,
2016-05-26,0.51, 1.31, 2.46, 1.90, 1.61, 7.15, repro,